STARLINK-36644

Last updated on Sun Mar 15 2026 00:02:07 GMT+0000 (Coordinated Universal Time)

1 67821U 26033A 26073.58335648 -.01913998 00000+0 -18161-1 0 9997 2 67821 42.9992 241.7180 0001416 267.3811 178.6965 15.69012429 5459
UTC large
Height (km)
Speed (km/s)
/
Latitude / Longitude
Inclination (degrees)
Orbital Period (minutes)
Azimuth
Elevation
Range (km)
Doppler Factor

Next 0 passes for location: London (51.5072 / 0.1276)

Sorry there are no passes over London.